Hourly Weather Roundup
Issued by NWS Central Illinois

Home | Current Version | Previous Version | Text Only | Print | Product List | Glossary On
Versions: 1 2 3 4 5 6 7 8 9 10 11 12 13 14 15 16 17 18 19 20 21 22 23 24 25 26 27 28 29 30 31 32 33 34 35 36 37 38 39 40 41 42 43 44 45 46 47 48 49 50
000
NZUS43 KILX 202210
HWRILX

AREA WEATHER ROUNDUP
NATIONAL WEATHER SERVICE, LINCOLN IL
500 PM CDT SAT SEP 20 2014


CITY           SKY/WX    TMP DP  RH WIND       PRES   REMARKS
BLOOMINGTON    PTSUNNY   78  73  84 W9        29.87F HX  80
CHAMPAIGN      TSTM      72  69  90 W8G20     29.92R FOG
DECATUR        LGT RAIN  75  71  87 W10       29.90F
FLORA          PTSUNNY   83  66  57 SW12      29.93F HX  85
GALESBURG      PTSUNNY   79  69  72 SW13G20   29.83F HX  81
JACKSONVILLE   PTSUNNY   83  73  71 W8        29.90F HX  88
LACON          PTSUNNY   78  68  72 SW10G20   29.81S HX  80
LAWRENCEVILLE  PTSUNNY   83  67  58 SW12      29.91F HX  85
LITCHFIELD     PTSUNNY   82  63  51 SW14G21   29.92S HX  83
$$


CITY           SKY/WX    TMP DP  RH WIND       PRES   REMARKS
LINCOLN        PTSUNNY   82  68  62 W5        29.84F HX  85
MACOMB         PTSUNNY   79  67  67 SW10      29.88F HX  81
MATTOON        PTSUNNY   81  67  62 SW14G24   29.90F HX  83
MT CARMEL AP   PTSUNNY   86  64  48 SW14G21   29.92F HX  87
OLNEY-NOBLE AP PTSUNNY   81  68  65 CALM      29.92F HX  83
PARIS          MOSUNNY   82  66  59 SW13G18   29.90R HX  84
PEORIA         PTSUNNY   80  67  64 W13       29.84F HX  82
PONTIAC        PTSUNNY   81  70  69 SW13      29.83F HX  84
RANTOUL        CLOUDY    69  64  82 SW8       29.90R
ROBINSON       PTSUNNY   84  68  57 SW13G22   29.91F HX  87
SPRINGFIELD    LGT RAIN  75  71  87 W6        29.88F FOG
TAYLORVILLE    PTSUNNY   81  68  65 SW14      29.89F HX  83
$$

...REGIONAL REPORTS...


CITY           SKY/WX    TMP DP  RH WIND       PRES   REMARKS
CHICAGO O`HARE PTSUNNY   77  66  68 SW7       29.78F
KANKAKEE       PTSUNNY   76  70  82 CALM      29.82F
MOLINE         PTSUNNY   78  67  68 W9        29.82S HX  80
MOUNT VERNON   PTSUNNY   82  70  65 S10       29.94F HX  86
PITTSFIELD     PTSUNNY   84  69  60 SW12G18   29.90F HX  88
QUINCY         PTSUNNY   82  70  66 W6        29.88F HX  86
ROCKFORD       MOSUNNY   75  62  64 SW15      29.79S
$$


CITY           SKY/WX    TMP DP  RH WIND       PRES   REMARKS
BURLINGTON     MOSUNNY   79  69  71 SW14      29.84F HX  81
CEDAR RAPIDS   MOSUNNY   79  67  66 SW10      29.80F HX  81
DES MOINES     MOSUNNY   85  62  46 W14       29.85S HX  85
KIRKSVILLE     SUNNY     80  71  74 W6        29.91F HX  84
OTTUMWA        PTSUNNY   80  67  64 SW13G20   29.85F HX  82
ST LOUIS       PTSUNNY   87  68  52 W9        29.92F HX  90
$$


CITY           SKY/WX    TMP DP  RH WIND       PRES   REMARKS
TERRE HAUTE    MOSUNNY   82  65  56 SW12G23   29.90F HX  84
EVANSVILLE     SUNNY     84  64  50 SW15      29.95F HX  85
INDIANAPOLIS   PTSUNNY   78  66  66 SW16      29.89F HX  80
LAFAYETTE      MOSUNNY   79  65  62 SW12G22   29.83F HX  81
MADISON        PTSUNNY   76  61  59 W7        29.74F
MILWAUKEE      PTSUNNY   74  62  66 SW15G23   29.73F
$$





USA.gov is the U.S. government's official web portal to all federal, state and local government web resources and services.